Regional Weather Roundup
Issued by NWS

Home | Current Version | Previous Version | Text Only | Print | Product List | Glossary On
Versions: 1 2 3 4 5 6 7 8 9 10 11 12 13 14 15 16 17 18 19 20 21 22 23 24 25 26 27 28 29 30 31 32 33 34 35 36 37 38 39 40 41 42 43 44 45 46 47 48 49 50
000
ASUS44 KLUB 011901
RWRTX
WEST TEXAS WEATHER ROUNDUP
NATIONAL WEATHER SERVICE LUBBOCK TX
200 PM CDT WED OCT 01 2014

NOTE: "FAIR" INDICATES FEW OR NO CLOUDS BELOW 12,000 FEET WITH NO
SIGNIFICANT WEATHER AND/OR OBSTRUCTIONS TO VISIBILITY.

TXZ004-006>008-010-012-014-016-OKZ002-012000-
TEXAS PANHANDLE/OKLAHOMA PANHANDLE

CITY           SKY/WX    TMP DP  RH WIND       PRES   REMARKS
AMARILLO       SUNNY     79  43  27 VRB6      29.84F
BORGER         SUNNY     83  39  21 NE6       29.80F
CANADIAN       SUNNY     84  47  27 W7G17     29.75F
DALHART        SUNNY     80  36  20 NE3       29.85F
DUMAS          SUNNY     83  38  20 W5        29.83F
GUYMON         SUNNY     82  40  22 CALM      29.78F
HEREFORD       SUNNY     80  41  25 CALM      29.86F
PERRYTON       SUNNY     81  53  37 W5        29.78F
$$

TXZ026-029-035-045-048-012000-
SOUTHERN PANHANDLE/SOUTH PLAINS/ROLLING PLAINS

CITY           SKY/WX    TMP DP  RH WIND       PRES   REMARKS
CHILDRESS      SUNNY     91  48  22 W12       29.75F
SEMINOLE       SUNNY     85  44  24 W12G21    29.86F
LUBBOCK        SUNNY     84  48  28 W15       29.83F
PLAINVIEW      SUNNY     80  49  33 SW6       29.83F
SNYDER         SUNNY     85  66  51 SW10      29.81F
$$

TXZ052-054-060>062-072-078-127-140-154-169-012000-
PERMIAN BASIN/CONCHO VALLEY/BIG COUNTRY/EDWARDS PLATEAU

CITY           SKY/WX    TMP DP  RH WIND       PRES   REMARKS
ABILENE        SUNNY     90  66  45 SW13G21   29.79F
BIG SPRING     SUNNY     89  56  32 S6        29.83F
BRADY          SUNNY     90  64  43 S6        29.81F
JUNCTION       SUNNY     89  64  43 SW12      29.82F
MIDLAND        SUNNY     88  51  28 W7        29.83F
ODESSA         SUNNY     86  49  27 W9        29.85F
SAN ANGELO     SUNNY     93  64  38 S8G22     29.79F
SONORA         SUNNY     90  63  40 S10G18    29.87F
SWEETWATER     SUNNY     88  65  47 S13       29.83F
WINK           SUNNY     88  46  23 W16       29.83F
$$

TXZ055-058-074-075-080-082-012000-
FAR WEST/SOUTHWEST MOUNTAINS/TRANS PECOS

CITY           SKY/WX    TMP DP  RH WIND       PRES   REMARKS
ALPINE         SUNNY     85  46  25 SW7G17    30.01F
DRYDEN           N/A     91  63  39 VRB5      29.80F
EL PASO        SUNNY     81  33  17 W13G22    29.92F
FORT STOCKTON  SUNNY     89  46  22 NW8G17    29.86F
GUADALUPE PASS SUNNY     76  37  24 SW35G45   29.98F
MARFA          SUNNY     81  46  30 W14G20    30.02F
PRESIDIO       FAIR      89  46  23 CALM      29.87F
$$

TXZ014-016-019-021>030-083-012000
TEXAS TECH WEST TEXAS MESONET/TEXAS PANHANDLE/NORTHERN SOUTH PLAINS

CITY           SKY/WX    TMP DP  RH WIND       PRES   REMARKS
ABERNATHY 5ENE   N/A     82  48  30 SW7       29.85F
AMARILLO 9NNE    N/A     80  42  26 SW7       29.83F
AMARILLO 7SSE    N/A     81  45  27 S2        29.85F
AMHERST 1NE      N/A     79  44  29 W2        29.86F
BOOTLEG 11WNW    N/A     76  37  24 SW9       29.91F
CANADIAN 6E      N/A     84  51  31 W7        29.74F
CAPROCK CYN SP   N/A     86  43  22 SW6       29.79F
CHILDRESS 2NNE   N/A     91  46  21 SW10      29.75F
CLARENDON 2WSW   N/A     87  37  17 SW7       29.79F
CLAUDE 12SW      N/A     80  46  30 SE2       29.84F
DIMMITT 2NE      N/A     77  41  27 S3        29.87F
FLOYDADA 2NNE    N/A     82  46  28 SW8       29.83F
FRIONA 2NE       N/A     77  38  24 NW3       29.88F
GOODLETT 3W      N/A     93  54  27 S8        29.73F
HART 3N          N/A     80  42  25 SW5       29.85F
HEREFORD 2NW     N/A     78  37  22 W2        29.86F
MCLEAN 1E        N/A     88  39  17 W7        29.78F
MEMPHIS 1NE      N/A     88  42  20 SW9       29.76F
OLTON 6S         N/A     81  45  27 S6        29.85F
PALO DURO SP     N/A     81  45  28 SE3       29.85F
PAMPA 2E         N/A     80  44  27 NW6       29.82S
PLAINVIEW 1S     N/A     80  47  30 S5        29.83F
SILVERTON 7ESE   N/A     86  42  21 SW7       29.82F
TULIA 2ENE       N/A     82  41  23 SW6       29.84F
TURKEY 2WSW      N/A     87  47  24 SW9       29.77F
UMBARGER 3NNE    N/A     81  38  21 S10       29.86F
$$

TXZ033>036-039>041-045>048-012000
TEXAS TECH WEST TEXAS MESONET/SOUTH PLAINS

CITY           SKY/WX    TMP DP  RH WIND       PRES   REMARKS
AIKEN 3WSW       N/A     82  48  30 S6        29.85F
ANDREWS 2NE      N/A     87  43  21 W12       29.86F
BROWNFIELD 2S    N/A     83  54  36 S13       29.84F
DENVR CTY 7WNW   N/A     80  42  26 SW12      29.87F
GAIL 2ESE        N/A     86  62  45 S7        29.81F
LAMESA 2SE       N/A     83  63  49 SW9       29.84F
LEVELLAND 4S     N/A     82  48  30 SW9       29.85F
LUBBOCK 3WNW     N/A     84  48  29 SW10      29.84F
MORTON 1ENE      N/A     79  43  27 SE3       29.86F
ODONNELL 1N      N/A     83  58  42 S12       29.84F
PLAINS 3N        N/A     80  45  28 SW9       29.87F
REESE CENTER     N/A     82  44  26 SW12      29.84F
SEMINOLE 2NNE    N/A     84  42  22 SW13      29.85F
SLATON 2NE       N/A     82  55  39 SW8       29.83F
SNYDER 3E        N/A     87  67  50 S9        29.81F
SUNDOWN 8SW      N/A     82  48  29 SW9       29.86F
TAHOKA 3NNE      N/A     83  60  45 SW8       29.83F
WOLFFORTH 6SSW   N/A     82  54  37 S12       29.84F
$$

TXZ031-032-036>038-042>044-012000-
TEXAS TECH WEST TEXAS MESONET/ROLLING PLAINS

CITY           SKY/WX    TMP DP  RH WIND       PRES   REMARKS
ASPERMONT 3NE    N/A     89  67  48 S10       29.77F
FLUVANNA 3WNW    N/A     84  61  45 SW10      29.82F
GRAHAM 5SSW      N/A     83  62  48 S9        29.82F
GUTHRIE 10WSW    N/A     87  66  49 SW8       29.77F
HASKELL 1NW      N/A     90  61  37 SW10      29.75F
JAYTON 1SSE      N/A     87  65  48 SW7       29.78F
KNOX CITY 3NW    N/A     92  62  36 SW14      29.75F
LK A HENRY 1NW   N/A     87  64  46 S6        29.79F
NORTHFIELD 1S    N/A     90  49  24 S10       29.76F
ODELL 4ENE       N/A     92  59  32 S8        29.73F
PADUCAH 10SW     N/A     88  62  42 S13       29.76F
POST 1NE         N/A     85  64  50 SW7       29.81F
RRING SPRGS 3N   N/A     85  60  41 SW8       29.80F
SEYMOUR 3NW      N/A     92  62  36 S9        29.74F
SPUR 1W          N/A     84  63  49 S9        29.79F
WEINERT 2NNE     N/A     91  65  41 SW10      29.75F
WHITE RVR 6NE    N/A     84  61  45 S9        29.81F
$$

TXZ052-054-060>062-072-078-127-140-154-169-012000-
TEXAS TECH WEST TEXAS MESONET/PERMIAN BASIN/
CONCHO VALLEY/BIG COUNTRY/EDWARDS PLATEAU

CITY           SKY/WX    TMP DP  RH WIND       PRES   REMARKS
COYANOSA 2N      N/A     89  50  26 W9        29.84F
JUNCTION 1SSW    N/A     90  66  45 S8        29.82F
MERTZON 3NNE     N/A     92  65  40 S14       29.82F
SAN ANGELO 7NW   N/A     90  63  39 S9        29.80F
STRLNG CT 4WSW   N/A     91  65  41 SW6       29.81F
ST LAWRNCE 5SW   N/A     89  50  25 SW12      29.83F
SWEETWATR 11SW   N/A     87  68  52 S8        29.83F
WALL 1E          N/A     89  65  44 S9        29.81F
$$

TXZ055-058-074-075-080-082-012000-
TEXAS TECH WEST TEXAS MESONET/FAR WEST/SOUTHWEST MOUNTAINS/TRANS PECOS

CITY           SKY/WX    TMP DP  RH WIND       PRES   REMARKS
PRSMN GAP BBNP   N/A     93  58  31 SE1       29.85F
GUADLPE MTN NP   N/A     72  34  24 SW17      30.01F
$$



USA.gov is the U.S. government's official web portal to all federal, state and local government web resources and services.